Back to catalog

COSMOS 2251 DEB

AliveLEO
NORAD 33792·DEBRIS·🇷🇺 Russia

Launched Jun 16, 1993 from Plesetsk Cosmodrome

Loading…

Next Passes (next 24 hours)

TLE

FreshSource: Space-Track

Epoch: Sep 14, 2026, 07:05 UTC

1 33792U 93036AH  26257.29573645  .00000454  00000-0  45240-3 0  9999
2 33792  73.8972 265.0590 0432499 280.9487  88.2739 13.46226854861506

Track COSMOS 2251 DEB in real time with AllMySat

Download on the App Store